Weather in Mandrikovo

Russia / Chukotka Autonomous Okrug     67°15′48″N   159°10′09″E
temp.,
°C
wind,
m/s
gust,
m/s
humid.,
%
clouds,
%
prec.,
mm/h
press.,
hPa
HPBL,
m
14 may, fri
fri1400:00−6ese119198 0.0 101310
03:00−8e119473 0.0 101310
06:00−7ese229359 0.0 101330
09:00−3se238367 0.0 1013178
12:000se238435 0.0 1013360
15:00+1se237847 0.0 1013442
18:00+2se237624 0.0 1013475
21:00+1se00855 0.0 101410
15 may, sat
sat1500:00−2e009010 0.0 101510
03:00−4e019338 0.0 101610
06:00−3se119446 0.0 101714
09:00−1sw018540 0.0 1018234
12:00+1nw117688 0.0 1018613
15:00+2nw1069100 0.0 1017751
18:00+2sse006999 0.0 1018482
21:00+2sse2270100 0.0 101818
16 may, sun
sun1600:00+1sse2269100 0.0 101818
03:00+1sse2267100 0.0 101816
06:00+1se227099 0.0 101781
09:00+2se356079 0.0 1017756
12:00+5sse56519 0.0 10161141
15:00+6sse55519 0.0 10151209
18:00+6sse45485 0.0 10141269
21:00+5se35595 0.0 1013300
17 may, mon
mon1700:00+1e22755 0.0 101310
03:000e22772 0.0 101210
06:00+1ese22721 0.0 101199
09:00+4se45605 0.0 1010616
12:00+6se55493 0.0 1008980
15:00+8se55425 0.0 10071328
18:00+9se45385 0.0 10061461
21:00+8ese55441 0.0 10061086
18 may, tue
tue1800:00+4e22650 0.0 100628
03:00+1e22740 0.0 100610
06:00+2ese12690 0.0 100692
09:00+5se34575 0.0 1006632
12:00+7se45475 0.0 10051154
15:00+9se44425 0.0 10041523
18:00+10se343845 0.0 10041791
21:00+9ese444170 0.0 10041568